Charlottesville, VA

1:05 PM EDT on May 26, 2017 (GMT -0400)
Charlottesville-Albemarle

Weather History for KCHO - January, 2013

Change the Weather History Date:

Wednesday, January 30, 2013

  Actual Average Record
Temperature  
Mean Temperature 62 °F 36 °F  
Max Temperature 69 °F 46 °F 81 °F (2002)
Min Temperature 55 °F 26 °F 2 °F (1934)
Degree Days  
Heating Degree Days 3 29  
Month to date heating degree days 752 895  
Since 1 July heating degree days 2264 2631  
Cooling Degree Days 0 0  
Month to date cooling degree days 0 0  
Year to date cooling degree days 0 0  
Growing Degree Days 12 (Base 50)    
Moisture  
Dew Point 56 °F    
Average Humidity 86    
Maximum Humidity 100    
Minimum Humidity 72    
Precipitation  
Precipitation 2.56 in 0.07 in 2.56 in (2013)
Month to date precipitation 4.90 2.69  
Year to date precipitation 4.90 2.69  
Sea Level Pressure  
Sea Level Pressure 29.56 in    
Wind  
Wind Speed 14 mph (SSW)    
Max Wind Speed 32 mph    
Max Gust Speed 39 mph    
Visibility 6 miles    
Events Rain    
T = Trace of Precipitation, MM = Missing Value Source: NWS Daily Summary

Daily Weather History Graph

Daily Weather History Graph

Search for Another Location

Airport or City:

Trip Planner

Search our weather history database for the weather conditions in past years. The results will help you decide how hot, cold, wet, or windy it might be!

Date:

Astronomy

Jan. 30, 2013 Rise Set
Actual Time 7:20 AM EST 5:34 PM EST
Civil Twilight 6:52 AM EST 6:02 PM EST
Nautical Twilight 6:20 AM EST 6:34 PM EST
Astronomical Twilight 5:49 AM EST 7:05 PM EST
Moon 9:26 PM EST (1/30) 8:51 AM EST (1/30)
Length of Visible Light 11h 10m
Length of Day
10h 14m
Waning Gibbous, 88% of the Moon is Illuminated
Jan 30
Waning Gibbous
Feb 3
Last Quarter
Feb 10
New
Feb 17
First Quarter
Feb 25
Full

Hourly Weather History & Observations

Time (EST) Temp. Dew Point Humidity Pressure Visibility Wind Dir Wind Speed Gust Speed Precip Events Conditions
12:53 AM 57.9 °F 50.0 °F 75% 29.94 in 10.0 mi South 6.9 mph - N/A   Clear
1:53 AM 57.0 °F 51.1 °F 81% 29.91 in 10.0 mi South 8.1 mph - N/A   Clear
2:53 AM 59.0 °F 52.0 °F 78% 29.88 in 10.0 mi South 11.5 mph - N/A   Partly Cloudy
3:53 AM 59.0 °F 53.1 °F 81% 29.87 in 10.0 mi South 13.8 mph - N/A   Mostly Cloudy
4:53 AM 60.1 °F 54.0 °F 80% 29.84 in 10.0 mi SSW 17.3 mph 23.0 mph N/A   Overcast
5:17 AM 60.8 °F 55.4 °F 82% 29.85 in 10.0 mi SSW 13.8 mph - N/A   Overcast
5:49 AM 60.8 °F 55.4 °F 82% 29.84 in 10.0 mi SSW 11.5 mph 19.6 mph N/A   Overcast
5:53 AM 60.1 °F 55.0 °F 83% 29.83 in 10.0 mi SSW 13.8 mph 19.6 mph N/A   Overcast
6:12 AM 60.8 °F 55.4 °F 82% 29.84 in 10.0 mi SSW 9.2 mph - N/A   Overcast
6:19 AM 60.8 °F 55.4 °F 82% 29.84 in 10.0 mi SSW 10.4 mph - N/A   Overcast
6:53 AM 60.1 °F 55.9 °F 86% 29.82 in 10.0 mi South 9.2 mph - N/A   Overcast
7:53 AM 61.0 °F 57.0 °F 87% 29.81 in 10.0 mi South 12.7 mph - N/A   Overcast
8:53 AM 63.0 °F 57.9 °F 84% 29.79 in 10.0 mi South 12.7 mph 21.9 mph N/A   Overcast
9:53 AM 64.9 °F 57.9 °F 78% 29.76 in 9.0 mi South 17.3 mph 23.0 mph N/A   Overcast
10:53 AM 64.9 °F 59.0 °F 81% 29.73 in 4.0 mi South 10.4 mph - N/A   Haze
11:53 AM 69.1 °F 59.0 °F 70% 29.69 in 7.0 mi SSW 25.3 mph 33.4 mph 0.00 in Rain Light Rain
12:53 PM 68.0 °F 60.1 °F 76% 29.63 in 7.0 mi SW 20.7 mph 34.5 mph 0.00 in Rain Light Rain
1:53 PM 68.0 °F 61.0 °F 78% 29.61 in 7.0 mi SSW 21.9 mph 36.8 mph 0.00 in Rain Light Rain
2:53 PM 69.1 °F 60.1 °F 73% 29.59 in 7.0 mi SW 20.7 mph 36.8 mph 0.00 in   Overcast
3:33 PM 68.0 °F 60.8 °F 78% 29.58 in 7.0 mi SSW 19.6 mph 34.5 mph 0.00 in   Overcast
3:45 PM 66.2 °F 62.6 °F 88% 29.57 in 7.0 mi SSW 19.6 mph 34.5 mph 0.00 in Rain Light Rain
3:53 PM 66.0 °F 62.1 °F 87% 29.56 in 7.0 mi SSW 19.6 mph 34.5 mph 0.01 in Rain Light Rain
4:53 PM 66.9 °F 61.0 °F 81% 29.52 in 7.0 mi SSW 17.3 mph 33.4 mph 0.00 in   Overcast
5:53 PM 66.9 °F 60.1 °F 79% 29.49 in 7.0 mi South 18.4 mph 24.2 mph N/A   Overcast
6:22 PM 60.8 °F 55.4 °F 82% 29.54 in 2.0 mi West 8.1 mph 26.5 mph 0.12 in Rain Rain
6:26 PM 57.2 °F 55.4 °F 94% 29.53 in 0.8 mi WNW 11.5 mph 26.5 mph 0.31 in Rain Heavy Rain
6:41 PM 57.2 °F 55.4 °F 94% 29.54 in 1.5 mi SSW 8.1 mph - 0.58 in Rain Heavy Rain
6:53 PM 57.0 °F 55.0 °F 93% 29.52 in 4.0 mi SSE 9.2 mph - 0.64 in Rain Light Rain
7:00 PM 57.2 °F 55.4 °F 94% 29.51 in 7.0 mi SSE 3.5 mph - 0.02 in Rain Light Rain
7:53 PM 57.0 °F 55.9 °F 96% 29.48 in 8.0 mi SSE 8.1 mph - 0.17 in Rain Light Rain
8:53 PM 57.0 °F 55.9 °F 96% 29.41 in 3.0 mi SSW 3.5 mph - 0.41 in Rain Heavy Rain
9:01 PM 57.2 °F 55.4 °F 94% 29.42 in 1.8 mi Variable 3.5 mph - 0.09 in Rain Heavy Rain
9:15 PM 55.4 °F 55.4 °F 100% 29.40 in 3.0 mi Calm Calm - 0.22 in Rain Rain
9:22 PM 55.4 °F 55.4 °F 100% 29.37 in 2.5 mi Variable 4.6 mph - 0.29 in Rain Heavy Rain
9:31 PM 55.4 °F 55.4 °F 100% 29.38 in 1.2 mi Calm Calm - 0.44 in Rain Heavy Rain
9:39 PM 55.4 °F 55.4 °F 100% 29.35 in 3.0 mi Variable 4.6 mph - 0.46 in Rain Light Rain
9:53 PM 55.9 °F 55.0 °F 97% 29.30 in 7.0 mi ENE 12.7 mph - 0.47 in Rain Light Rain
10:03 PM 55.4 °F 55.4 °F 100% 29.34 in 2.5 mi SE 9.2 mph 20.7 mph 0.08 in Rain Heavy Rain
10:11 PM 57.2 °F 55.4 °F 94% 29.32 in 4.0 mi SW 5.8 mph 17.3 mph 0.11 in Rain Rain
10:20 PM 59.0 °F 57.2 °F 94% 29.31 in 1.8 mi South 15.0 mph 31.1 mph 0.22 in Rain Heavy Rain
10:33 PM 57.2 °F 55.4 °F 94% 29.35 in 1.0 mi WNW 16.1 mph 24.2 mph 0.50 in Rain Heavy Rain
10:46 PM 57.2 °F 57.2 °F 100% 29.31 in 3.0 mi Calm Calm - 0.62 in Rain Light Rain
10:53 PM 57.0 °F 55.9 °F 96% 29.29 in 9.0 mi SSE 5.8 mph - 0.63 in Rain Light Rain
11:15 PM 57.2 °F 55.4 °F 94% 29.28 in 7.0 mi Calm Calm - 0.03 in Rain Light Rain
11:35 PM 57.2 °F 55.4 °F 94% 29.24 in 7.0 mi SSE 3.5 mph - 0.04 in Rain Light Rain
11:48 PM 57.2 °F 57.2 °F 100% 29.26 in 2.5 mi West 8.1 mph 17.3 mph 0.12 in Rain Rain
11:53 PM 57.2 °F 55.4 °F 94% 29.29 in 1.5 mi WNW 9.2 mph 21.9 mph 0.02 in Rain Heavy Rain